Voltar ao catálogo

COSMOS 2251 DEB

AtivoLEO
NORAD 36045·DEBRIS·🇷🇺 Russia

Lançado Jun 16, 1993 de Plesetsk Cosmodrome

Loading…

Próximas Passagens (próximas 24 horas)

TLE

ObsoletoSource: Space-Track

Época: Sep 8, 2026, 06:20 UTC

1 36045U 93036AXG 26251.26437041  .00008348  00000-0  11924-2 0  9994
2 36045  73.7587 244.8440 0045716 217.7472 142.0492 14.76110994123589

Acompanhe COSMOS 2251 DEB em tempo real com AllMySat

Download on the App Store